[[{"header":{"parameterUnit":"m.s-1","parameterCategory":1,"la1":30.2991,"la2":30.254,"lo1":-89.0895,"lo2":-89.0444,"dy":0.0017,"dx":0.0017,"nx":28,"ny":28,"refTime":"2023-05-23T21:00:00:Z","depth":0,"parameterNumber":2,"parameterNumberName":"U-component_of_WINDS"},"data":[0,0,0,0,0,0,0,0,0,0,0,0,0,0,0,0,0,0,0,0,0,0,0,0,0,0,0,0,0,0,0,0,0,0,0,0,0,0,0,0,0,0,0,0,0,0,0,0,0,0,0,0,0,0,0,0,0,0,-2.3441,-2.3441,0,-2.3423,-2.3423,-2.3423,-2.3347,-2.3345,-2.3343,-2.3342,-2.3326,-2.3327,-2.3328,0,0,0,0,0,0,0,0,0,0,0,0,0,-2.3411,-2.3412,-2.3441,-2.3441,-2.3441,-2.3423,-2.3423,-2.3423,-2.3347,-2.3345,-2.3343,-2.3341,-2.3325,-2.3327,-2.3328,0,0,0,0,0,0,0,0,0,0,0,0,0,-2.3412,-2.3412,-2.3441,-2.3401,-2.3397,-2.3423,-2.3423,-2.3423,-2.3348,-2.3345,-2.3342,-2.334,-2.3325,-2.3327,-2.3328,-2.3393,0,0,-2.3334,-2.3335,0,0,0,0,0,0,0,0,-2.3412,-2.3413,-2.3407,-2.3404,-2.3399,-2.3384,-2.3406,-2.3413,-2.3348,-2.3366,-2.3342,-2.3338,-2.3348,-2.3347,-2.335,-2.3392,-2.3391,-2.3334,-2.3335,-2.3336,-2.3337,0,0,0,0,0,0,0,-2.3412,-2.3413,-2.3434,-2.3407,-2.3402,-2.3384,-2.3381,-2.3407,-2.3372,-2.3365,-2.3359,-2.3358,-2.3345,-2.3348,-2.3349,-2.3391,-2.3334,-2.3336,-2.3337,-2.3338,-2.3485,-2.3488,0,0,0,0,0,0,-2.3417,-2.3414,-2.3434,-2.3433,-2.3399,-2.3387,-2.3383,-2.3392,-2.3372,-2.3366,-2.336,-2.3354,-2.3346,-2.3347,-2.3348,-2.3422,-2.3336,-2.3338,-2.3339,-2.3482,-2.3486,-2.3489,0,0,0,0,0,0,-2.3417,-2.342,-2.3435,-2.3422,-2.3423,-2.339,-2.34,-2.3393,-2.3396,-2.3368,-2.3362,-2.337,-2.3344,-2.3345,-2.3382,-2.3421,-2.3339,-2.334,-2.3479,-2.3483,-2.3487,-2.3571,0,0,0,0,0,0,-2.3417,-2.342,-2.3444,-2.3423,-2.3424,-2.3469,-2.3402,-2.3395,-2.3399,-2.3392,-2.3376,-2.3371,-2.3342,-2.338,-2.3384,-2.3422,-2.3342,-2.3475,-2.3481,-2.3486,-2.3565,-2.3578,-2.3589,0,0,0,0,0,-2.3416,-2.3469,-2.3446,-2.3449,-2.3453,-2.3472,-2.3472,-2.3438,-2.3403,-2.3427,-2.3409,-2.3371,-2.3415,-2.3384,-2.3388,-2.3427,-2.3473,-2.3479,-2.3485,-2.356,-2.3575,-2.3589,0,0,0,0,0,0,-2.3497,-2.3466,-2.344,-2.3488,-2.3483,-2.3459,-2.3488,-2.3456,-2.3461,-2.3454,-2.3412,-2.3409,-2.3452,-2.3443,-2.3408,-2.3488,-2.3438,-2.3445,-2.3493,-2.3508,-2.3519,-2.3521,-2.3343,0,0,0,0,0,-2.352,-2.3538,-2.351,-2.3555,-2.3554,-2.3522,-2.3529,-2.3503,-2.3496,-2.3494,-2.3478,-2.3474,-2.3487,-2.3497,-2.3507,-2.3563,-2.3558,-2.3592,-2.3604,-2.3614,-2.3621,-2.365,-2.3664,-2.3509,-2.3509,-2.3509,0,0,-2.357,-2.3555,-2.3568,-2.3571,-2.3564,-2.3584,-2.3521,-2.3544,-2.3558,-2.3498,-2.3531,-2.352,-2.3512,-2.3559,-2.3578,-2.3552,-2.3662,-2.3622,-2.363,-2.3632,-2.3658,-2.3673,-2.3686,-2.3514,-2.3513,-2.3512,0,0,-2.3669,-2.3659,-2.3696,-2.3689,-2.3679,-2.3657,-2.3666,-2.3647,-2.3636,-2.3669,-2.3624,-2.364,-2.3663,-2.366,-2.3661,-2.3757,-2.3723,-2.3762,-2.3825,-2.3854,-2.3866,-2.3877,-2.3912,-2.3925,-2.3769,-2.3769,-2.3769,0,-2.3732,-2.3758,-2.3719,-2.3745,-2.3748,-2.3692,-2.3729,-2.3725,-2.372,-2.3723,-2.3694,-2.3721,-2.3712,-2.3757,-2.378,-2.3783,-2.3792,-2.3764,-2.3867,-2.3878,-2.3887,-2.392,-2.3933,-2.3774,-2.3773,-2.3773,-2.3772,0,-2.3836,-2.3855,-2.3886,-2.3881,-2.3886,-2.3918,-2.3884,-2.3894,-2.3867,-2.3849,-2.3882,-2.3869,-2.3876,-2.3884,-2.3859,-2.3926,-2.391,-2.3875,-2.3823,-2.3907,-2.3937,-2.395,-2.3781,-2.3779,-2.3778,-2.3776,0,0,-2.3988,-2.3959,-2.3971,-2.3968,-2.3952,-2.3966,-2.3995,-2.4,-2.401,-2.4008,-2.4032,-2.4052,-2.4018,-2.402,-2.3993,-2.4018,-2.4096,-2.3979,-2.3978,-2.4002,-2.4169,-2.4197,-2.4212,-2.4072,-2.4074,-2.4076,-2.417,0,-2.4083,-2.413,-2.4095,-2.4149,-2.4166,-2.4113,-2.4138,-2.4131,-2.4114,-2.4126,-2.4107,-2.4122,-2.4077,-2.4078,-2.41,-2.4082,-2.4129,-2.4074,-2.4095,-2.4096,-2.41,-2.4228,-2.4257,-2.4346,-2.4182,-2.4184,-2.4185,0,-2.4202,-2.4203,-2.4258,-2.4237,-2.4243,-2.4267,-2.4268,-2.428,-2.4272,-2.4257,-2.4258,-2.4224,-2.4251,-2.42,-2.4237,-2.4201,-2.4207,-2.4199,-2.4201,-2.4203,-2.4147,-2.4234,-2.4374,-2.4388,-2.4203,-2.4202,-2.42,0,-2.4308,-2.4324,-2.4358,-2.4357,-2.4334,-2.4351,-2.4342,-2.433,-2.4336,-2.4337,-2.434,-2.4345,-2.4349,-2.4354,-2.4322,-2.4287,-2.4364,-2.4309,-2.4353,-2.4354,-2.4373,-2.4373,-2.4517,-2.4375,-2.4375,-2.4375,-2.4375,0,-2.4419,-2.4455,-2.4406,-2.4428,-2.4466,-2.4425,-2.4464,-2.445,-2.444,-2.4458,-2.4412,-2.443,-2.4387,-2.4401,-2.4376,-2.4411,-2.4413,-2.4402,-2.4396,-2.4407,-2.4409,-2.4412,-2.4405,-2.4378,-2.4378,-2.4377,-2.4376,0,-2.4545,-2.4514,-2.4548,-2.4522,-2.4517,-2.4547,-2.4525,-2.4544,-2.4523,-2.4546,-2.455,-2.4517,-2.4531,-2.4499,-2.4509,-2.4492,-2.4542,-2.4525,-2.4545,-2.4541,-2.4586,-2.4583,-2.4739,-2.4758,-2.4603,-2.4605,-2.4606,0,-2.4619,-2.4645,-2.4622,-2.463,-2.4623,-2.4638,-2.4642,-2.4602,-2.4609,-2.46,-2.462,-2.463,-2.4636,-2.466,-2.4638,-2.4645,-2.4628,-2.4683,-2.4629,-2.464,-2.463,-2.463,-2.4632,-2.4694,-2.4696,-2.4698,-2.4699,0,-2.4753,-2.4736,-2.4744,-2.4746,-2.4752,-2.4753,-2.475,-2.4759,-2.4716,-2.4727,-2.4739,-2.4744,-2.4753,-2.4763,-2.4765,-2.4756,-2.4721,-2.4715,-2.4726,-2.4739,-2.475,-2.4745,-2.4576,-2.4712,-2.4711,-2.471,-2.4709,-2.4709,-2.4856,-2.4877,-2.4863,-2.4873,-2.4866,-2.4864,-2.4881,-2.4861,-2.487,-2.4874,-2.485,-2.4868,-2.4857,-2.4856,-2.4851,-2.4865,-2.484,-2.4856,-2.486,-2.4865,-2.4872,-2.4746,-2.4865,-2.4865,-2.4864,-2.4864,-2.4863,0,-2.4989,-2.4977,-2.4986,-2.4983,-2.4991,-2.4955,-2.4949,-2.4959,-2.4975,-2.4967,-2.4973,-2.4988,-2.4998,-2.4975,-2.4982,-2.4997,-2.4981,-2.5,-2.4999,-2.4998,-2.4894,-2.4884,-2.5013,-2.5013,-2.5013,-2.5013,-2.5013,-2.5013,-2.5059,-2.5091,-2.5072,-2.5101,-2.5089,-2.5105,-2.5105,-2.5103,-2.5097,-2.5115,-2.5122,-2.5107,-2.5094,-2.5098,-2.5106,-2.5099,-2.5104,-2.5129,-2.5117,-2.502,-2.5005,-2.4992,-2.4982,-2.513,-2.513,-2.522,-2.5221,-2.5222]},{"header":{"parameterUnit":"m.s-1","parameterCategory":1,"la1":30.2991,"la2":30.254,"lo1":-89.0895,"lo2":-89.0444,"dy":0.0017,"dx":0.0017,"nx":28,"ny":28,"refTime":"2023-05-23T21:00:00:Z","depth":0,"parameterNumber":3,"parameterNumberName":"V-component_of_WINDS"},"data":[0,0,0,0,0,0,0,0,0,0,0,0,0,0,0,0,0,0,0,0,0,0,0,0,0,0,0,0,0,0,0,0,0,0,0,0,0,0,0,0,0,0,0,0,0,0,0,0,0,0,0,0,0,0,0,0,0,0,-1.7782,-1.7782,0,-1.7794,-1.7794,-1.7794,-1.7769,-1.7768,-1.7767,-1.7766,-1.7779,-1.778,-1.7781,0,0,0,0,0,0,0,0,0,0,0,0,0,-1.7737,-1.7738,-1.7782,-1.7782,-1.7782,-1.7794,-1.7794,-1.7794,-1.7769,-1.7768,-1.7767,-1.7766,-1.7778,-1.778,-1.7781,0,0,0,0,0,0,0,0,0,0,0,0,0,-1.7753,-1.7738,-1.7782,-1.7771,-1.777,-1.7794,-1.7794,-1.7794,-1.7769,-1.7768,-1.7766,-1.7765,-1.7778,-1.778,-1.7781,-1.7817,0,0,-1.7786,-1.7787,0,0,0,0,0,0,0,0,-1.7752,-1.7755,-1.7772,-1.7772,-1.7771,-1.7778,-1.7783,-1.7802,-1.7769,-1.7769,-1.7766,-1.7765,-1.778,-1.7781,-1.7786,-1.7817,-1.7818,-1.7787,-1.7788,-1.7788,-1.7789,0,0,0,0,0,0,0,-1.7751,-1.7754,-1.7787,-1.7773,-1.7772,-1.7765,-1.7766,-1.7786,-1.7781,-1.7769,-1.7767,-1.7769,-1.7779,-1.7785,-1.7786,-1.7818,-1.7786,-1.7788,-1.7789,-1.779,-1.7879,-1.7881,0,0,0,0,0,0,-1.7751,-1.7754,-1.7786,-1.7787,-1.7758,-1.7767,-1.7768,-1.7777,-1.7781,-1.778,-1.777,-1.7768,-1.7782,-1.7784,-1.7787,-1.7829,-1.7788,-1.779,-1.7791,-1.7878,-1.788,-1.7881,0,0,0,0,0,0,-1.7751,-1.7755,-1.7786,-1.777,-1.7773,-1.7769,-1.778,-1.7778,-1.7784,-1.7782,-1.7781,-1.7777,-1.7782,-1.7784,-1.781,-1.7829,-1.7791,-1.7792,-1.7876,-1.7878,-1.788,-1.7914,0,0,0,0,0,0,-1.7749,-1.7754,-1.7768,-1.777,-1.7774,-1.7808,-1.7781,-1.7779,-1.7787,-1.7784,-1.7788,-1.7787,-1.7781,-1.7807,-1.7811,-1.7831,-1.7793,-1.7875,-1.7877,-1.788,-1.7911,-1.7917,-1.7922,0,0,0,0,0,-1.7748,-1.7777,-1.7769,-1.7773,-1.7791,-1.781,-1.7812,-1.7804,-1.7788,-1.7802,-1.7801,-1.7787,-1.7826,-1.781,-1.7814,-1.7835,-1.7873,-1.7876,-1.7879,-1.7909,-1.7916,-1.7922,0,0,0,0,0,0,-1.7777,-1.7777,-1.7768,-1.7798,-1.7804,-1.7805,-1.7822,-1.7811,-1.7822,-1.7819,-1.7808,-1.7809,-1.7837,-1.7838,-1.782,-1.787,-1.7847,-1.7851,-1.7868,-1.7875,-1.788,-1.788,-1.7795,0,0,0,0,0,-1.7786,-1.7802,-1.7801,-1.7828,-1.7831,-1.7826,-1.7834,-1.7827,-1.7833,-1.7835,-1.7836,-1.7842,-1.7856,-1.7865,-1.7877,-1.7911,-1.7912,-1.7927,-1.7933,-1.7937,-1.7941,-1.796,-1.7967,-1.7891,-1.7891,-1.7891,0,0,-1.7807,-1.7809,-1.7819,-1.7834,-1.7838,-1.7854,-1.7829,-1.7847,-1.7859,-1.7838,-1.7863,-1.7863,-1.7869,-1.7899,-1.7912,-1.7901,-1.7962,-1.7941,-1.7945,-1.7946,-1.7964,-1.7971,-1.7978,-1.7893,-1.7893,-1.7893,0,0,-1.7853,-1.7856,-1.7879,-1.7884,-1.789,-1.7886,-1.7892,-1.7894,-1.7894,-1.7918,-1.7903,-1.7917,-1.7941,-1.7946,-1.7952,-1.8,-1.7989,-1.8005,-1.8034,-1.8052,-1.8058,-1.8064,-1.8082,-1.8089,-1.8008,-1.8009,-1.8009,0,-1.7878,-1.7903,-1.7893,-1.7912,-1.7919,-1.7901,-1.7925,-1.7929,-1.7939,-1.7945,-1.7932,-1.7961,-1.7964,-1.7996,-1.8007,-1.8012,-1.8019,-1.8005,-1.8058,-1.8063,-1.8068,-1.8086,-1.8093,-1.8011,-1.801,-1.801,-1.801,0,-1.7934,-1.7951,-1.7969,-1.7979,-1.7988,-1.801,-1.8003,-1.8013,-1.8006,-1.8004,-1.8029,-1.8031,-1.8044,-1.8051,-1.8043,-1.8081,-1.8074,-1.806,-1.8038,-1.8078,-1.8094,-1.8101,-1.8013,-1.8013,-1.8012,-1.8012,0,0,-1.8,-1.8004,-1.8011,-1.8016,-1.8021,-1.8034,-1.8055,-1.8068,-1.8078,-1.8085,-1.8103,-1.8123,-1.811,-1.8116,-1.8109,-1.8125,-1.8165,-1.8109,-1.8109,-1.8121,-1.8209,-1.8221,-1.8229,-1.8157,-1.8158,-1.8159,-1.8209,0,-1.8047,-1.8083,-1.8075,-1.8111,-1.8127,-1.8109,-1.8128,-1.8133,-1.8132,-1.8145,-1.8143,-1.8158,-1.8139,-1.8143,-1.8158,-1.8157,-1.8183,-1.8153,-1.8174,-1.8175,-1.8175,-1.8237,-1.825,-1.8298,-1.8215,-1.8216,-1.8217,0,-1.8107,-1.8117,-1.8155,-1.8158,-1.8165,-1.8181,-1.8193,-1.8206,-1.8211,-1.8209,-1.8217,-1.8206,-1.8227,-1.8203,-1.8233,-1.8213,-1.822,-1.8221,-1.8223,-1.8226,-1.82,-1.8244,-1.8312,-1.832,-1.8227,-1.8226,-1.8225,0,-1.8153,-1.8176,-1.8202,-1.8206,-1.8211,-1.8223,-1.8225,-1.823,-1.8238,-1.8248,-1.8254,-1.8265,-1.8273,-1.8282,-1.8276,-1.8258,-1.8306,-1.8282,-1.8306,-1.8307,-1.8318,-1.8318,-1.8391,-1.8321,-1.8321,-1.832,-1.832,0,-1.8208,-1.8232,-1.8223,-1.8239,-1.8266,-1.8256,-1.8282,-1.8282,-1.8287,-1.8303,-1.8288,-1.8303,-1.8292,-1.8307,-1.8302,-1.8328,-1.833,-1.833,-1.8329,-1.8332,-1.8333,-1.8339,-1.8336,-1.8322,-1.8322,-1.8322,-1.8321,0,-1.8265,-1.826,-1.8287,-1.8289,-1.829,-1.831,-1.8311,-1.8326,-1.8323,-1.8344,-1.8348,-1.8344,-1.836,-1.8354,-1.8371,-1.8368,-1.8401,-1.8395,-1.84,-1.8399,-1.8424,-1.8422,-1.8505,-1.8515,-1.8437,-1.8437,-1.8438,0,-1.8301,-1.8319,-1.8323,-1.8333,-1.8337,-1.8352,-1.8361,-1.8351,-1.8361,-1.8369,-1.8384,-1.8399,-1.8411,-1.8438,-1.8436,-1.845,-1.8444,-1.8472,-1.8446,-1.845,-1.8447,-1.8447,-1.8449,-1.8478,-1.8479,-1.848,-1.848,0,-1.8366,-1.8363,-1.8376,-1.8389,-1.84,-1.8409,-1.8417,-1.8426,-1.8417,-1.8428,-1.8445,-1.8454,-1.8472,-1.8488,-1.85,-1.8502,-1.849,-1.8488,-1.8495,-1.85,-1.8503,-1.8503,-1.8416,-1.8487,-1.8486,-1.8486,-1.8485,-1.8485,-1.8415,-1.8431,-1.8437,-1.8452,-1.8457,-1.8465,-1.848,-1.8479,-1.8492,-1.8507,-1.85,-1.852,-1.8525,-1.854,-1.8544,-1.856,-1.8549,-1.8558,-1.8561,-1.8564,-1.8568,-1.8499,-1.8562,-1.8561,-1.8561,-1.8561,-1.8561,0,-1.8481,-1.8483,-1.8498,-1.851,-1.8522,-1.8509,-1.8517,-1.8529,-1.8546,-1.8553,-1.8565,-1.8584,-1.8599,-1.8599,-1.8613,-1.8625,-1.862,-1.863,-1.863,-1.8631,-1.8576,-1.857,-1.8634,-1.8634,-1.8634,-1.8634,-1.8634,-1.8634,-1.8517,-1.8543,-1.8541,-1.857,-1.8572,-1.8592,-1.8598,-1.8605,-1.861,-1.8633,-1.8646,-1.8645,-1.8649,-1.8663,-1.8677,-1.8676,-1.8683,-1.8694,-1.8692,-1.8641,-1.8634,-1.8627,-1.8621,-1.8695,-1.8696,-1.8746,-1.8746,-1.8746]}]]